Location: Prairie State College
(41.5244°N, 87.6382°W)
Time: 23:26:12
(UTC-05:00)

ARGOS Delta rocket - Visible Passes

Search period start: 01 April 2015 00:00
Search period end: 11 April 2015 00:00
Orbit: 637 x 839 km, 96.5° (Epoch: 01 April)

Date Brightness Start Highest point End Pass type
(mag) Time Alt. Az. Time Alt. Az. Time Alt. Az.
01 Apr 6.1 22:39:58 18° NNE 22:39:58 18° NNE 22:41:25 10° N visible
02 Apr 6.2 21:54:39 13° NE 21:54:39 13° NE 21:55:31 10° NNE visible
02 Apr 6.4 23:34:16 18° NNW 23:34:16 18° NNW 23:35:32 10° NNW visible
03 Apr 6.0 22:48:58 21° N 22:48:58 21° N 22:50:46 10° N visible
04 Apr 6.0 22:03:39 16° NE 22:03:39 16° NE 22:05:12 10° NNE visible
04 Apr 6.4 23:43:16 18° NNW 23:43:16 18° NNW 23:44:39 10° NNW visible
05 Apr 5.9 22:57:58 25° N 22:57:58 25° N 23:00:05 10° N visible
06 Apr 5.8 22:12:39 20° NNE 22:12:39 20° NNE 22:14:46 10° NNE visible
06 Apr 6.4 23:52:16 18° NW 23:52:16 18° NW 23:53:43 10° NNW visible
07 Apr 6.3 21:27:20 10° NE 21:27:20 10° NE 21:27:32 10° NE visible
07 Apr 5.8 23:06:58 28° N 23:06:58 28° N 23:09:21 10° N visible
08 Apr 5.6 22:21:38 24° NNE 22:21:38 24° NNE 22:24:14 10° N visible
09 Apr 6.5 00:01:16 17° NW 00:01:16 17° NW 00:02:43 10° NNW visible
09 Apr 6.1 21:36:20 13° NE 21:36:20 13° NE 21:38:00 10° NNE visible
09 Apr 5.7 23:15:58 30° NNW 23:15:58 30° NNW 23:18:34 10° NNW visible
10 Apr 5.4 22:30:39 30° NNE 22:30:39 30° NNE 22:33:38 10° N visible
